{"data":{"norad_id":65109,"intl_designator":"2025-168D","name":"HULIANWANG DIGUI-52","alt_names":[],"object_type":"PAYLOAD","status":"ACTIVE","operator":null,"country":"PRC","launch_date":"2025-08-04","launch_site_code":"WSC","launch_vehicle":null,"mission":null,"orbit_class":"UNKNOWN","rcs_meters":null,"size_class":null,"mass_kg":null,"dimensions":null,"purposes":[],"wikipedia_slug":null,"has_3d_model":false,"image_url":null,"decayed_at":null,"tle_current":{"epoch":"2026-05-25T03:08:55.755168Z","epoch_age_seconds":60927,"freshness":"FRESH","line1":"1 65109U 25168D   26145.13120087 -.00000085  00000+0  84549-4 0  9990","line2":"2 65109  50.0042  48.4307 0010688  32.5434 327.6095 13.29318237 39625","mean_motion":13.29318237,"eccentricity":0.0010688,"inclination_deg":50.0042,"raan_deg":48.4307,"arg_perigee_deg":32.5434,"mean_anomaly_deg":327.6095,"bstar":8.4549e-5,"rev_number":3962,"period_min":108.32620511171,"perigee_km":1141.2905148355,"apogee_km":1157.3812408592,"semimajor_km":7527.4728778474,"source":"CELESTRAK","updated_at":"2026-05-25T13:38:05.134155Z"}}}